Fort Myers, FL

1:25 AM EDT on April 27, 2017 (GMT -0400)
Page

Weather History for KFMY - September, 2013

Change the Weather History Date:

Friday, September 13, 2013

  Actual Average Record
Temperature  
Mean Temperature 81 °F 83 °F  
Max Temperature 89 °F 91 °F 95 °F (1991)
Min Temperature 73 °F 75 °F 67 °F (1917)
Degree Days  
Heating Degree Days 0 0  
Month to date heating degree days 0 0  
Since 1 July heating degree days 0 0  
Cooling Degree Days 16 18  
Month to date cooling degree days 222 234  
Year to date cooling degree days 2940 2958  
Growing Degree Days 31 (Base 50)    
Moisture  
Dew Point 72 °F    
Average Humidity 79    
Maximum Humidity 100    
Minimum Humidity 55    
Precipitation  
Precipitation 0.00 in 0.30 in 1.33 in (1975)
Month to date precipitation 3.49 4.12  
Year to date precipitation 43.09 45.19  
Sea Level Pressure  
Sea Level Pressure 29.88 in    
Wind  
Wind Speed 3 mph (NW)    
Max Wind Speed 13 mph    
Max Gust Speed 16 mph    
Visibility 10 miles    
Events      
T = Trace of Precipitation, MM = Missing Value Source: NWS Daily Summary

Daily Weather History Graph

Daily Weather History Graph

Search for Another Location

Airport or City:

Trip Planner

Search our weather history database for the weather conditions in past years. The results will help you decide how hot, cold, wet, or windy it might be!

Date:

Astronomy

Sep. 13, 2013 Rise Set
Actual Time 7:12 AM EDT 7:33 PM EDT
Civil Twilight 6:49 AM EDT 7:56 PM EDT
Nautical Twilight 6:21 AM EDT 8:24 PM EDT
Astronomical Twilight 5:54 AM EDT 8:51 PM EDT
Moon 2:59 PM EDT (9/13) 1:04 AM EDT (9/13)
Length of Visible Light 13h 07m
Length of Day
12h 21m
First Quarter, 61% of the Moon is Illuminated
Sep 13
First Quarter
Sep 19
Full
Sep 26
Last Quarter
Oct 4
New
Oct 11
First Quarter

Hourly Weather History & Observations

Time (EDT) Temp. Heat Index Dew Point Humidity Pressure Visibility Wind Dir Wind Speed Gust Speed Precip Events Conditions
12:53 AM 73.0 °F - 73.0 °F 100% 29.91 in 10.0 mi ENE 4.6 mph - N/A   Clear
1:21 AM 73.4 °F - 73.4 °F 100% 29.91 in 10.0 mi East 3.5 mph - N/A   Scattered Clouds
1:41 AM 73.4 °F - 71.6 °F 94% 29.90 in 8.0 mi Calm Calm - N/A   Mostly Cloudy
1:53 AM 73.0 °F - 72.0 °F 96% 29.91 in 8.0 mi Calm Calm - N/A   Mostly Cloudy
2:45 AM 73.4 °F - 71.6 °F 94% 29.89 in 8.0 mi Calm Calm - N/A   Scattered Clouds
2:53 AM 73.0 °F - 72.0 °F 96% 29.90 in 9.0 mi Calm Calm - N/A   Partly Cloudy
3:53 AM 73.0 °F - 72.0 °F 96% 29.88 in 10.0 mi Calm Calm - N/A   Clear
4:53 AM 73.0 °F - 72.0 °F 96% 29.88 in 10.0 mi Calm Calm - N/A   Clear
5:53 AM 73.0 °F - 72.0 °F 96% 29.88 in 10.0 mi Calm Calm - N/A   Clear
6:53 AM 73.0 °F - 72.0 °F 96% 29.89 in 10.0 mi Calm Calm - N/A   Clear
7:53 AM 73.0 °F - 73.0 °F 100% 29.90 in 8.0 mi Calm Calm - N/A   Clear
8:53 AM 75.9 °F - 73.9 °F 94% 29.91 in 10.0 mi ENE 3.5 mph - N/A   Clear
9:53 AM 81.0 °F 86.2 °F 73.9 °F 79% 29.91 in 10.0 mi Calm Calm - N/A   Clear
10:53 AM 82.9 °F 88.0 °F 72.0 °F 69% 29.91 in 10.0 mi Calm Calm - N/A   Clear
11:53 AM 86.0 °F 90.7 °F 70.0 °F 59% 29.91 in 10.0 mi Calm Calm - N/A   Clear
12:53 PM 87.1 °F 92.0 °F 70.0 °F 57% 29.89 in 10.0 mi NW 4.6 mph - N/A   Clear
1:53 PM 88.0 °F 92.9 °F 70.0 °F 55% 29.87 in 10.0 mi Variable 3.5 mph - N/A   Partly Cloudy
2:53 PM 89.1 °F 95.0 °F 71.1 °F 55% 29.85 in 10.0 mi WNW 8.1 mph - N/A   Clear
3:53 PM 89.1 °F 96.0 °F 72.0 °F 57% 29.83 in 10.0 mi WSW 9.2 mph - N/A   Clear
4:53 PM 88.0 °F 93.8 °F 71.1 °F 57% 29.81 in 10.0 mi West 9.2 mph - N/A   Scattered Clouds
5:53 PM 88.0 °F 94.7 °F 72.0 °F 59% 29.82 in 10.0 mi West 10.4 mph - N/A   Clear
6:53 PM 86.0 °F 90.7 °F 70.0 °F 59% 29.83 in 10.0 mi WNW 9.2 mph - N/A   Clear
7:53 PM 84.0 °F 89.0 °F 71.1 °F 65% 29.83 in 10.0 mi WNW 5.8 mph - N/A   Clear
8:53 PM 82.9 °F 88.0 °F 72.0 °F 69% 29.85 in 10.0 mi WNW 4.6 mph - N/A   Clear
9:53 PM 82.0 °F 87.4 °F 73.0 °F 74% 29.86 in 10.0 mi NNW 3.5 mph - N/A   Clear
10:53 PM 81.0 °F 85.8 °F 73.0 °F 77% 29.87 in 10.0 mi Calm Calm - N/A   Clear
11:53 PM 80.1 °F 84.5 °F 73.9 °F 81% 29.88 in 10.0 mi Calm Calm - N/A   Clear